Vorticity
-5 4 6 7 5 4 5 4 8 8 8 8 9 10 8 6 6 2 3 4 6 3 7 8 4 4 5 5 6 6 7 7 6 5 5 5 6 7 8 5 5 5 5
2 -4 2 5 7 3 3 5 6 8 5 6 9 9 7 6 5 3 3 5 5 4 9 4 4 4 5 6 7 7 7 7 6 6 6 5 4 4 4 5 5 5 5
3 2 1 6 10 10 5 3 4 7 6 6 7 8 7 6 5 4 3 5 3 5 8 4 4 5 6 7 7 8 7 7 7 6 5 4 4 4 7 11 11 12 7
-0 -1 5 -3 6 14 9 5 4 5 6 6 6 6 6 5 6 4 5 5 5 7 6 4 4 5 6 7 6 8 8 7 7 5 4 4 6 14 7 4 5 4 5
4 -3 -0 4 -7 -3 10 9 6 5 5 6 5 5 5 5 5 5 7 9 16 11 5 4 4 5 7 6 6 6 6 6 6 4 3 8 6 3 3 3 3 4 5
0 5 -1 -3 -2 -4 2 7 11 4 6 3 5 6 5 6 3 8 7 9 12 5 3 4 5 6 8 6 6 5 6 6 5 5 1 3 1 4 4 4 4 4 5
12 9 6 6 -1 0 6 -1 9 9 4 4 4 5 6 6 5 9 3 1 1 5 3 4 6 7 7 6 5 4 5 4 5 6 4 2 2 4 4 3 5 5 5
15 15 12 10 6 4 7 2 -3 14 6 5 4 4 5 11 10 14 11 6 10 1 4 5 6 7 7 5 4 5 4 4 5 4 6 4 4 5 5 5 5 5 5
11 7 13 14 15 7 3 8 -4 1 13 5 4 2 9 9 3 7 4 1 0 1 3 5 6 8 7 5 5 6 7 7 7 8 8 7 5 6 5 5 5 5 5
6 11 10 6 12 16 6 8 11 -6 9 8 5 5 6 7 1 4 -1 9 11 2 3 5 6 8 7 5 4 6 5 7 9 13 6 5 4 5 5 5 5 5 4
6 8 10 13 8 7 16 5 8 14 2 10 4 6 4 6 -2 1 -1 13 12 3 3 5 6 7 7 5 5 5 6 7 9 6 4 5 4 5 5 5 4 4 5
6 8 10 9 10 9 8 11 6 6 6 10 5 3 3 3 3 2 -3 9 9 3 3 5 5 7 6 4 5 5 6 6 7 6 5 4 5 5 5 5 4 4 4
5 7 9 9 14 11 9 8 11 10 8 8 9 3 3 3 3 1 1 10 6 4 3 4 5 7 6 5 4 5 6 7 7 6 5 5 5 5 5 4 4 5 5
7 6 8 9 12 14 12 12 9 15 10 6 8 10 2 2 3 2 0 9 9 3 4 5 6 7 7 5 4 4 6 7 7 4 5 5 5 5 5 4 4 5 4
6 6 9 9 13 14 13 11 12 11 14 2 12 6 7 1 0 5 4 4 14 4 5 5 6 7 7 5 4 5 6 7 6 5 5 5 5 5 5 5 5 5 4
8 9 6 9 15 14 15 12 12 12 19 12 3 11 0 3 -2 3 5 6 11 7 6 6 6 8 7 5 4 6 6 8 6 5 5 5 5 5 4 5 5 6 5
6 4 19 23 18 14 16 11 11 14 12 14 6 10 -8 25 3 2 3 4 9 7 7 6 6 7 6 6 5 6 7 8 8 7 6 5 5 4 4 5 5 5 5
8 13 21 17 13 12 15 12 9 14 14 15 7 22 19 -8 32 6 4 1 8 9 8 6 6 6 6 6 6 5 7 5 6 6 6 5 5 4 5 5 5 5 4
10 16 12 9 10 13 9 10 13 10 13 6 8 13 26 -20 16 13 2 3 7 10 8 7 6 6 7 6 5 5 6 5 6 6 6 5 5 5 5 5 5 5 5
9 19 11 11 17 11 13 11 12 13 12 16 9 22 -10 -11 33 9 3 6 6 9 8 7 6 6 7 8 7 6 6 6 6 6 5 6 5 5 5 5 4 4 5
13 17 8 12 6 14 16 12 9 12 9 9 11 1 22 28 -30 2 4 4 7 7 10 8 8 7 7 6 7 6 6 6 6 5 5 4 4 4 5 5 4 5 6
14 14 11 -1 15 -4 17 7 12 15 15 11 12 10 1 1 10 1 14 4 8 6 9 9 9 7 4 6 7 7 7 6 5 4 5 5 5 5 5 5 5 6 5
9 12 10 12 -3 37 20 14 11 12 21 18 13 10 18 38 17 38 7 6 4 7 11 10 11 9 9 7 7 7 5 6 6 6 5 6 5 5 5 5 6 6 6
13 15 9 12 13 8 19 17 25 29 16 31 35 27 12 28 4 23 14 7 20 7 10 9 10 9 10 9 8 6 6 7 6 10 6 6 6 6 6 6 6 5 6
11 12 12 9 7 25 45 22 -2 12 21 1 25 21 19 1 10 11 10 11 12 7 8 8 9 9 8 9 7 11 9 7 5 6 8 10 8 8 7 6 6 6 5
8 6 16 22 2 30 49 27 9 -42 -0 -10 -8 52 29 6 9 -70 -12 7 6 8 7 7 8 8 9 9 8 7 8 10 10 7 11 6 7 9 8 8 6 7 5
Height
3141 3141 3142 3142 3143 3144 3145 3145 3146 3146 3147 3147 3148 3149 3151 3152 3153 3154 3156 3157 3158 3159 3160 3161 3162 3162 3163 3163 3164 3164 3164 3165 3165 3166 3166 3167 3168 3168 3169 3169 3170 3170 3171
3139 3141 3141 3141 3142 3142 3143 3144 3145 3146 3146 3147 3147 3148 3150 3151 3153 3154 3155 3157 3157 3158 3159 3160 3161 3162 3163 3163 3163 3164 3164 3165 3165 3166 3167 3168 3169 3169 3170 3170 3171 3171 3173
3137 3139 3140 3140 3140 3141 3141 3142 3143 3144 3145 3146 3147 3148 3149 3150 3152 3153 3155 3156 3157 3158 3159 3160 3161 3162 3162 3162 3162 3163 3164 3165 3166 3167 3168 3168 3170 3170 3171 3171 3171 3172 3173
3135 3135 3137 3139 3138 3139 3140 3141 3141 3142 3144 3145 3146 3147 3149 3150 3151 3153 3154 3155 3156 3157 3158 3160 3160 3161 3161 3161 3162 3163 3164 3166 3167 3168 3169 3169 3170 3171 3172 3172 3173 3174 3175
3132 3133 3134 3136 3137 3137 3138 3139 3140 3141 3142 3144 3145 3146 3147 3149 3150 3152 3153 3154 3155 3156 3157 3159 3160 3160 3161 3161 3162 3163 3165 3167 3168 3169 3169 3169 3171 3172 3172 3173 3174 3175 3177
3128 3129 3131 3131 3133 3134 3135 3135 3137 3138 3140 3142 3143 3145 3146 3148 3149 3151 3153 3154 3154 3155 3156 3158 3159 3160 3160 3161 3162 3164 3166 3167 3169 3169 3170 3170 3171 3171 3173 3174 3175 3176 3176
3125 3123 3125 3127 3128 3130 3132 3133 3133 3136 3138 3140 3142 3143 3145 3146 3148 3149 3151 3152 3153 3153 3155 3156 3158 3159 3159 3160 3162 3164 3166 3167 3168 3169 3170 3171 3172 3173 3174 3174 3175 3177 3177
3119 3118 3119 3123 3123 3125 3127 3129 3130 3131 3134 3137 3138 3140 3142 3144 3144 3147 3148 3150 3150 3151 3154 3155 3156 3157 3158 3158 3161 3164 3165 3166 3168 3169 3170 3171 3172 3173 3174 3174 3176 3177 3178
3115 3115 3115 3116 3119 3120 3122 3124 3126 3128 3130 3132 3135 3137 3139 3140 3142 3144 3146 3147 3148 3150 3152 3153 3154 3156 3157 3157 3160 3162 3163 3166 3167 3168 3169 3171 3172 3174 3175 3175 3176 3177 3178
3110 3111 3111 3111 3113 3115 3116 3118 3121 3124 3125 3128 3130 3133 3135 3137 3139 3140 3143 3145 3145 3147 3149 3151 3152 3154 3155 3156 3158 3161 3163 3165 3166 3167 3169 3170 3172 3174 3175 3176 3177 3178 3179
3106 3105 3106 3107 3107 3108 3110 3112 3114 3118 3121 3122 3125 3127 3130 3132 3135 3138 3140 3141 3143 3145 3146 3148 3150 3151 3152 3155 3158 3160 3161 3163 3165 3166 3168 3169 3171 3173 3175 3176 3177 3177 3178
3099 3100 3100 3100 3101 3101 3103 3105 3108 3111 3114 3117 3119 3122 3124 3127 3131 3134 3136 3137 3139 3142 3143 3145 3146 3148 3149 3153 3156 3158 3160 3162 3164 3165 3167 3169 3171 3173 3174 3175 3176 3177 3178
3092 3093 3094 3094 3094 3093 3094 3097 3100 3103 3106 3110 3113 3115 3118 3122 3125 3128 3131 3133 3135 3137 3140 3141 3143 3145 3147 3151 3154 3156 3158 3161 3163 3165 3166 3168 3170 3172 3173 3174 3176 3177 3178
3086 3085 3086 3087 3086 3085 3086 3088 3091 3095 3098 3101 3105 3109 3112 3115 3119 3122 3126 3129 3131 3133 3138 3139 3140 3141 3144 3148 3151 3153 3156 3159 3162 3163 3165 3168 3169 3171 3172 3174 3176 3177 3177
3079 3078 3077 3078 3077 3078 3077 3079 3082 3086 3091 3094 3097 3102 3105 3108 3112 3117 3120 3123 3126 3128 3133 3136 3137 3138 3140 3144 3147 3151 3154 3157 3160 3161 3164 3166 3168 3170 3172 3173 3175 3176 3176
3072 3071 3070 3070 3068 3067 3069 3071 3073 3076 3082 3085 3089 3092 3095 3096 3103 3109 3114 3116 3120 3124 3128 3131 3134 3135 3136 3141 3144 3148 3152 3155 3157 3159 3162 3163 3166 3168 3169 3171 3173 3174 3175
3065 3063 3061 3059 3059 3058 3060 3062 3064 3067 3070 3075 3079 3083 3086 3079 3090 3099 3106 3109 3114 3119 3122 3126 3128 3130 3131 3136 3141 3145 3148 3151 3154 3157 3159 3161 3163 3165 3167 3169 3170 3171 3172
3056 3053 3052 3051 3051 3051 3052 3054 3055 3057 3060 3064 3069 3073 3076 3079 3084 3090 3096 3101 3107 3112 3117 3120 3123 3125 3127 3133 3137 3141 3145 3148 3151 3154 3156 3158 3160 3162 3164 3166 3167 3169 3169
3050 3047 3044 3045 3044 3044 3044 3045 3047 3049 3051 3054 3057 3062 3066 3072 3076 3078 3087 3093 3100 3105 3110 3115 3118 3120 3123 3129 3133 3137 3142 3144 3148 3151 3153 3156 3158 3159 3161 3163 3165 3166 3167
3043 3041 3039 3038 3037 3037 3037 3037 3038 3039 3042 3045 3047 3051 3054 3059 3069 3060 3076 3084 3092 3098 3103 3108 3111 3115 3119 3125 3129 3132 3137 3140 3143 3147 3150 3152 3154 3157 3158 3160 3161 3163 3164
3037 3035 3033 3031 3030 3028 3027 3028 3028 3029 3031 3034 3037 3041 3045 3049 3056 3062 3067 3077 3084 3091 3097 3103 3106 3110 3112 3118 3124 3127 3131 3135 3138 3141 3145 3148 3150 3153 3155 3157 3159 3159 3160
3031 3030 3027 3024 3022 3020 3018 3018 3019 3020 3020 3024 3026 3029 3035 3042 3051 3051 3059 3071 3077 3085 3089 3094 3099 3103 3107 3112 3118 3124 3125 3129 3132 3137 3140 3143 3145 3147 3150 3152 3154 3156 3157
3026 3023 3020 3018 3015 3009 3008 3009 3010 3009 3010 3013 3017 3021 3027 3030 3040 3043 3048 3057 3070 3078 3083 3088 3094 3098 3103 3108 3112 3116 3120 3123 3129 3131 3135 3138 3141 3143 3145 3147 3149 3152 3153
3021 3017 3014 3012 3009 3004 3002 3001 3002 3002 3003 3004 3008 3015 3020 3024 3032 3037 3043 3048 3063 3071 3076 3083 3088 3093 3098 3102 3106 3110 3115 3120 3122 3128 3130 3133 3136 3138 3141 3143 3145 3147 3148
3017 3014 3009 3005 3001 2995 2989 2993 2997 2995 2996 3000 3003 3007 3013 3018 3022 3032 3039 3045 3053 3064 3070 3076 3082 3087 3092 3097 3101 3107 3111 3114 3117 3121 3126 3129 3132 3135 3137 3139 3141 3142 3143
3014 3009 3005 3001 2997 2990 2987 2988 2990 2989 2992 2990 2996 2998 3002 3009 3016 3027 3040 3038 3049 3056 3062 3069 3076 3082 3087 3091 3096 3101 3106 3110 3114 3117 3121 3124 3127 3129 3131 3133 3135 3137 3139